[[{"header":{"parameterUnit":"m.s-1","parameterCategory":1,"la1":30.2991,"la2":30.254,"lo1":-89.0895,"lo2":-89.0444,"dy":0.0017,"dx":0.0017,"nx":28,"ny":28,"refTime":"2024-04-20T03:00:00:Z","depth":0,"parameterNumber":2,"parameterNumberName":"U-component_of_WINDS"},"data":[0,0,0,0,0,0,0,0,0,0,0,0,0,0,0,0,0,0,0,0,0,0,0,0,0,0,0,0,0,0,0,0,0,0,0,0,0,0,0,0,0,0,0,0,0,0,0,0,0,0,0,0,0,0,0,0,0,0,2.6048,2.6049,0,2.6101,2.6101,2.6102,2.6053,2.6051,2.6049,2.6047,2.6102,2.6105,2.6108,0,0,0,0,0,0,0,0,0,0,0,0,0,2.5906,2.5908,2.6048,2.6049,2.6049,2.6101,2.6101,2.6102,2.6053,2.6051,2.6048,2.6046,2.6101,2.6105,2.6109,0,0,0,0,0,0,0,0,0,0,0,0,0,2.5964,2.5909,2.6048,2.6031,2.603,2.61,2.6101,2.6102,2.6053,2.6051,2.6048,2.6045,2.6099,2.6104,2.6109,2.6199,0,0,2.6124,2.6126,0,0,0,0,0,0,0,0,2.5961,2.5969,2.6033,2.6032,2.6031,2.6067,2.6071,2.6135,2.6054,2.6045,2.6047,2.6043,2.6093,2.6098,2.6114,2.6202,2.6204,2.6125,2.6128,2.613,2.6131,0,0,0,0,0,0,0,2.5957,2.5967,2.6069,2.6034,2.6033,2.6021,2.6026,2.6083,2.6085,2.6045,2.6042,2.6049,2.6092,2.611,2.6115,2.6205,2.6125,2.6129,2.6132,2.6134,2.6368,2.6371,0,0,0,0,0,0,2.5954,2.5963,2.6067,2.607,2.5988,2.6026,2.6032,2.6059,2.6084,2.6085,2.6051,2.6046,2.6103,2.611,2.6117,2.6224,2.613,2.6134,2.6137,2.6365,2.6369,2.6372,0,0,0,0,0,0,2.5951,2.5964,2.6065,2.6016,2.6028,2.6032,2.6062,2.6061,2.6079,2.6088,2.6088,2.6069,2.6101,2.611,2.6179,2.6225,2.6137,2.6141,2.6361,2.6366,2.6371,2.6438,0,0,0,0,0,0,2.5947,2.5963,2.5997,2.6017,2.6031,2.6126,2.6065,2.6064,2.6088,2.6082,2.6105,2.6106,2.6099,2.6172,2.6184,2.623,2.6145,2.6357,2.6363,2.6369,2.6432,2.6445,2.6456,0,0,0,0,0,2.5943,2.6015,2.5999,2.6012,2.6074,2.6129,2.6137,2.6126,2.6092,2.6126,2.6132,2.6106,2.6218,2.6179,2.6192,2.6241,2.6354,2.6362,2.6369,2.6426,2.6442,2.6456,0,0,0,0,0,0,2.6,2.6017,2.6,2.6081,2.6104,2.612,2.6163,2.6143,2.6177,2.617,2.6156,2.6162,2.6234,2.6245,2.6201,2.6329,2.628,2.6291,2.632,2.6335,2.6347,2.6343,2.6149,0,0,0,0,0,2.6023,2.6066,2.6078,2.6148,2.616,2.616,2.6184,2.6174,2.6197,2.6207,2.6218,2.6241,2.6282,2.6309,2.6347,2.6433,2.6437,2.6473,2.6485,2.6495,2.6504,2.655,2.6566,2.6396,2.6396,2.6396,0,0,2.6069,2.6083,2.6111,2.616,2.6176,2.6222,2.6169,2.6219,2.6252,2.6214,2.628,2.6289,2.6314,2.6392,2.6427,2.6403,2.6551,2.6504,2.6512,2.6516,2.6559,2.6575,2.6589,2.6401,2.64,2.64,0,0,2.6176,2.6191,2.6251,2.6269,2.6294,2.6294,2.6308,2.6328,2.6332,2.6397,2.637,2.641,2.648,2.6499,2.6518,2.6633,2.661,2.6646,2.6708,2.6753,2.6766,2.6778,2.6818,2.6833,2.6654,2.6655,2.6655,0,2.623,2.6297,2.6284,2.6336,2.6358,2.6326,2.6386,2.6404,2.6441,2.6457,2.643,2.6517,2.6532,2.6614,2.6641,2.6658,2.6674,2.6643,2.6765,2.6777,2.6788,2.6826,2.6841,2.6659,2.6658,2.6658,2.6657,0,2.6362,2.6409,2.6454,2.649,2.6517,2.6573,2.6569,2.6598,2.6586,2.6588,2.6655,2.6672,2.6713,2.6731,2.672,2.6812,2.6796,2.6767,2.6718,2.6808,2.6844,2.6858,2.6665,2.6663,2.6662,2.6661,0,0,2.6507,2.6535,2.6552,2.6568,2.6594,2.663,2.6684,2.6723,2.6748,2.6775,2.682,2.6881,2.6854,2.6876,2.6866,2.6906,2.6995,2.6872,2.6873,2.6894,2.7096,2.7117,2.7134,2.698,2.6983,2.6985,2.7094,0,2.6615,2.6709,2.6699,2.6789,2.6832,2.6802,2.6849,2.687,2.6874,2.6911,2.6915,2.6958,2.692,2.6932,2.697,2.6976,2.7035,2.6968,2.7022,2.7024,2.7016,2.7153,2.7176,2.7278,2.7108,2.711,2.7112,0,2.6753,2.6784,2.6878,2.6897,2.6914,2.6957,2.6992,2.7028,2.7051,2.7051,2.7075,2.7059,2.7114,2.7064,2.7139,2.7094,2.7115,2.7121,2.7125,2.7129,2.7073,2.7161,2.731,2.7325,2.7134,2.7132,2.713,0,2.6848,2.6914,2.6978,2.6993,2.7017,2.7048,2.7059,2.7079,2.7104,2.7134,2.715,2.7187,2.7207,2.7236,2.723,2.7194,2.7307,2.7256,2.7308,2.7308,2.7333,2.7331,2.7487,2.7348,2.7347,2.7347,2.7347,0,2.6969,2.7028,2.7022,2.7062,2.7126,2.7114,2.7179,2.7187,2.7205,2.7246,2.7222,2.7261,2.7251,2.7289,2.7285,2.7348,2.7357,2.7358,2.7357,2.736,2.736,2.7374,2.7367,2.7351,2.735,2.735,2.7349,0,2.7087,2.7085,2.7154,2.7171,2.7176,2.7223,2.7238,2.7275,2.7277,2.7329,2.734,2.7343,2.7387,2.7384,2.7434,2.7431,2.7508,2.7498,2.75,2.7498,2.755,2.7545,2.7719,2.7742,2.7588,2.759,2.7591,0,2.7164,2.7209,2.723,2.7256,2.7269,2.731,2.7335,2.7325,2.7351,2.7381,2.7415,2.7457,2.7489,2.7561,2.7567,2.7605,2.7596,2.7654,2.7601,2.7604,2.7596,2.7593,2.7597,2.7665,2.7667,2.7668,2.7669,0,2.7302,2.7298,2.7334,2.737,2.74,2.7427,2.7452,2.7475,2.7467,2.7498,2.7543,2.7568,2.7618,2.766,2.7696,2.7708,2.7688,2.7686,2.77,2.7704,2.7703,2.7704,2.7528,2.7682,2.768,2.768,2.7679,2.7678,2.7401,2.7439,2.746,2.75,2.7518,2.7542,2.7578,2.7584,2.7621,2.7661,2.7653,2.7703,2.7725,2.7771,2.7786,2.7825,2.7804,2.7824,2.7829,2.7834,2.784,2.7697,2.7832,2.7831,2.7831,2.7831,2.783,0,2.7536,2.7548,2.7586,2.7622,2.7654,2.7631,2.7658,2.7686,2.773,2.7752,2.7785,2.7836,2.7876,2.7886,2.7924,2.7953,2.7945,2.7964,2.7961,2.7964,2.7857,2.7841,2.797,2.797,2.797,2.797,2.797,2.797,2.7611,2.7673,2.7673,2.7744,2.7755,2.7803,2.7821,2.7843,2.786,2.7918,2.7951,2.7957,2.7974,2.8013,2.8049,2.8051,2.8066,2.8088,2.8086,2.7986,2.7972,2.7959,2.7943,2.8092,2.8092,2.819,2.8191,2.8192]},{"header":{"parameterUnit":"m.s-1","parameterCategory":1,"la1":30.2991,"la2":30.254,"lo1":-89.0895,"lo2":-89.0444,"dy":0.0017,"dx":0.0017,"nx":28,"ny":28,"refTime":"2024-04-20T03:00:00:Z","depth":0,"parameterNumber":3,"parameterNumberName":"V-component_of_WINDS"},"data":[0,0,0,0,0,0,0,0,0,0,0,0,0,0,0,0,0,0,0,0,0,0,0,0,0,0,0,0,0,0,0,0,0,0,0,0,0,0,0,0,0,0,0,0,0,0,0,0,0,0,0,0,0,0,0,0,0,0,1.3798,1.3799,0,1.3925,1.3927,1.3928,1.3939,1.3938,1.3937,1.3935,1.4062,1.4067,1.4071,0,0,0,0,0,0,0,0,0,0,0,0,0,1.3558,1.3563,1.3797,1.3799,1.3801,1.3925,1.3927,1.3929,1.394,1.3938,1.3936,1.3935,1.4061,1.4066,1.4072,0,0,0,0,0,0,0,0,0,0,0,0,0,1.3672,1.3564,1.3797,1.3821,1.3825,1.3925,1.3927,1.3929,1.394,1.3938,1.3936,1.3934,1.4059,1.4066,1.4073,1.4156,0,0,1.4094,1.4097,0,0,0,0,0,0,0,0,1.3665,1.368,1.3816,1.382,1.3824,1.3915,1.3889,1.4005,1.3941,1.3896,1.3935,1.3933,1.4015,1.4025,1.4053,1.4162,1.4168,1.4095,1.4099,1.4102,1.4104,0,0,0,0,0,0,0,1.3657,1.3675,1.3848,1.3818,1.3823,1.3824,1.3838,1.3911,1.3965,1.39,1.3901,1.3916,1.4016,1.4047,1.4056,1.417,1.4094,1.4101,1.4105,1.4108,1.4353,1.4355,0,0,0,0,0,0,1.3646,1.3668,1.3844,1.3852,1.3738,1.383,1.3846,1.3887,1.3964,1.3974,1.3918,1.3916,1.4036,1.4048,1.4061,1.4164,1.4102,1.4108,1.4112,1.435,1.4353,1.4356,0,0,0,0,0,0,1.364,1.3661,1.3839,1.3761,1.3783,1.3837,1.3883,1.3891,1.3922,1.3978,1.3987,1.3939,1.4035,1.4051,1.4133,1.4168,1.4111,1.4118,1.4348,1.4351,1.4354,1.4371,0,0,0,0,0,0,1.3633,1.3659,1.3693,1.3761,1.3787,1.391,1.3885,1.3895,1.3934,1.3933,1.4001,1.401,1.4034,1.4122,1.414,1.4177,1.4123,1.4345,1.4349,1.4353,1.4367,1.4374,1.438,0,0,0,0,0,1.3625,1.3691,1.3694,1.3716,1.3831,1.3912,1.3927,1.3955,1.3937,1.397,1.4006,1.4008,1.4161,1.413,1.415,1.419,1.4342,1.4348,1.4353,1.4364,1.4373,1.438,0,0,0,0,0,0,1.3624,1.3701,1.3705,1.3796,1.3848,1.3914,1.3957,1.3963,1.402,1.4017,1.4048,1.4063,1.4143,1.4175,1.4139,1.4275,1.425,1.4259,1.4252,1.426,1.4267,1.4258,1.4129,0,0,0,0,0,1.3635,1.3696,1.3759,1.3833,1.3859,1.3903,1.394,1.3957,1.4011,1.4033,1.4075,1.4126,1.4186,1.4225,1.4283,1.4371,1.4386,1.4408,1.4415,1.442,1.4428,1.4476,1.4487,1.4373,1.4373,1.4373,0,0,1.3657,1.3707,1.3743,1.3834,1.3876,1.3938,1.3922,1.3987,1.4033,1.4042,1.4122,1.4155,1.4214,1.4299,1.4339,1.4328,1.4462,1.4427,1.443,1.4436,1.4483,1.4494,1.4503,1.4376,1.4376,1.4375,0,0,1.373,1.3773,1.384,1.3883,1.3947,1.3976,1.3991,1.4057,1.4079,1.416,1.4169,1.4222,1.4325,1.4366,1.4401,1.4488,1.4491,1.4506,1.4541,1.4588,1.4597,1.4605,1.4636,1.4647,1.4513,1.4513,1.4513,0,1.3749,1.3844,1.3873,1.3939,1.3978,1.3991,1.4057,1.4097,1.4176,1.4202,1.4189,1.4318,1.4358,1.4453,1.4475,1.4502,1.452,1.4499,1.4593,1.4602,1.461,1.464,1.4651,1.4515,1.4515,1.4515,1.4514,0,1.3864,1.3929,1.3975,1.4053,1.4097,1.4162,1.4201,1.4242,1.4254,1.4284,1.4366,1.4415,1.4483,1.4507,1.452,1.4604,1.4595,1.4587,1.4563,1.4621,1.465,1.4662,1.4517,1.4516,1.4516,1.4516,0,0,1.394,1.4034,1.405,1.4085,1.4157,1.4207,1.4272,1.434,1.4375,1.4428,1.4483,1.457,1.4563,1.4602,1.4619,1.466,1.4726,1.4648,1.4649,1.4661,1.4821,1.4827,1.484,1.4728,1.4731,1.4732,1.4816,0,1.4021,1.414,1.4168,1.427,1.433,1.4342,1.4399,1.4448,1.4477,1.4531,1.4562,1.4623,1.461,1.4633,1.4675,1.4709,1.4759,1.4704,1.4779,1.4782,1.4765,1.4855,1.4862,1.4939,1.4828,1.483,1.4831,0,1.4131,1.4189,1.4297,1.436,1.4386,1.4437,1.4502,1.4553,1.4608,1.4627,1.467,1.4683,1.4751,1.4722,1.4815,1.4777,1.4809,1.483,1.4834,1.4843,1.481,1.4867,1.4965,1.4976,1.4849,1.4848,1.4846,0,1.4176,1.4281,1.4359,1.4389,1.4464,1.45,1.4533,1.4586,1.4625,1.468,1.4706,1.4768,1.4802,1.4849,1.4877,1.4854,1.4967,1.4942,1.4984,1.4983,1.5008,1.5006,1.5113,1.5027,1.5027,1.5027,1.5027,0,1.4264,1.4329,1.4381,1.4429,1.4502,1.4533,1.4604,1.4636,1.4684,1.4737,1.475,1.48,1.4835,1.4889,1.4911,1.4984,1.4999,1.5015,1.502,1.5015,1.5013,1.5037,1.5032,1.503,1.5029,1.5029,1.5028,0,1.4327,1.4364,1.445,1.4515,1.4533,1.4584,1.4638,1.4685,1.4714,1.4781,1.4799,1.4844,1.4909,1.4942,1.5021,1.5037,1.5119,1.5121,1.5101,1.5103,1.5144,1.514,1.527,1.5289,1.519,1.5191,1.5192,0,1.4381,1.4432,1.4502,1.454,1.4574,1.4634,1.4674,1.4705,1.4746,1.4813,1.4851,1.4916,1.497,1.5072,1.5111,1.5172,1.5175,1.5217,1.5184,1.5177,1.5176,1.5173,1.5178,1.5223,1.5224,1.5224,1.5225,0,1.4472,1.4488,1.4546,1.4611,1.4659,1.4711,1.4762,1.4791,1.4831,1.4875,1.4942,1.4984,1.5066,1.513,1.5194,1.5226,1.5232,1.5235,1.5248,1.5243,1.5229,1.5237,1.5117,1.5232,1.5231,1.5231,1.523,1.523,1.4533,1.4579,1.4636,1.47,1.4742,1.4789,1.4836,1.4871,1.4928,1.4998,1.5013,1.5083,1.5136,1.5222,1.5256,1.531,1.5302,1.532,1.5325,1.533,1.5332,1.522,1.5322,1.5322,1.5322,1.5321,1.5321,0,1.4625,1.4663,1.4721,1.4793,1.4843,1.4846,1.4902,1.4943,1.5006,1.5055,1.5108,1.5184,1.5246,1.529,1.5353,1.5388,1.5393,1.5404,1.5402,1.5409,1.5336,1.5319,1.5399,1.5399,1.5399,1.5399,1.5399,1.5399,1.4679,1.4757,1.4779,1.4878,1.4914,1.4984,1.5016,1.506,1.5099,1.5184,1.5237,1.5265,1.5312,1.5379,1.5435,1.5447,1.5469,1.5481,1.5492,1.5423,1.5414,1.5407,1.539,1.5485,1.5485,1.5561,1.5561,1.5562]}]]